Weather in Radostnoe

Ukraine / Odesa District     46°59′59″N   30°20′22″E
temp.,
°C
wind,
m/s
gust,
m/s
humid.,
%
clouds,
%
prec.,
mm/h
press.,
hPa
HPBL,
m
8 august, mon
mon800:00+25nne6115285 0.0 1015315
03:00+21n48715 0.0 1016144
06:00+20n48795 0.0 1016149
09:00+27nne564534 0.0 1017535
12:00+33ne44252 0.0 10171974
15:00+35ne442190 0.0 10153541
18:00+34nne442259 0.0 10143109
21:00+30nne492980 0.0 1015242
9 august, tue
tue900:00+25nne410425 0.0 1016179
03:00+22nne510456 0.0 1016215
06:00+23nne5106398 0.0 1016269
09:00+28ne784325 0.0 1016597
12:00+34ne55240 0.0 10162096
15:00+36nne5418100 0.0 10144010
18:00+34nne982618 0.0 10132015
21:00+27nne91445100 0.0 1014589
10 august, wed
wed1000:00+25nne8154492 0.0 1015635
03:00+22n71150100 0.0 1016535
06:00+20n91559100 0.0 1015463
09:00+24nne91448100 0.0 1015577
12:00+31nne8833100 0.0 10141512
15:00+33nne872897 0.0 10132178
18:00+31n993074 0.0 10131956
21:00+22sw3464100 2.7 101572
11 august, thu
thu1100:00+21nnw81263100 5.9 1015351
03:00+19n915717 5.9 1014312
06:00+18n6148079 0.0 1014341
09:00+22n7116856 0.0 1014433
12:00+31nne78325 0.0 10131283
15:00+35ene472133 0.0 10123016
18:00+27nne11144486 0.3 1014728
21:00+23nne476016 0.5 1015127
12 august, fri
fri1200:00+22n5962100 0.1 1015174
03:00+23n7126182 0.1 1015297
06:00+23nne7125986 0.0 1014406
09:00+26ne794591 0.0 1015608
12:00+32ne782797 0.0 10141561
15:00+34ene91024100 0.0 10133277
18:00+27ene8114469 0.1 1014553
21:00+25nne71445100 0.1 1014648